Location: Unspecified
(40.7945°N, 0.0000°E)
Time: 20:13:30
(UTC+00:00)

Explorer 7 - Pass Details

Date: 21 June 2021
Orbit: 484 x 676 km, 50.3° (Epoch: 28 July)

Event Time Altitude Azimuth Distance (km) Brightness Sun altitude
Rises 03:20:01 0° 298° (WNW) 2,918 10.3 -11.0°
Reaches altitude 10° 03:22:34 10° 289° (WNW) 1,975 9.4 -10.7°
Maximum altitude 03:26:37 33° 225° (SW) 998 7.6 -10.1°
Drops below altitude 10° 03:30:26 10° 161° (SSE) 1,853 9.3 -9.6°
Sets 03:32:45 0° 151° (SSE) 2,710 10.2 -9.2°
